Showing default

TBA - TO BE ASSIGNED, 69589

Orbit data source: Space-Track

You're viewing an Uncataloged Satellite

Recently launched and/or uncataloged satellites may have evolving metadata. Metadata may include but not limited to: Owner, Maufacturer, Bus, Motor, and Mission.

TBA - TO BE ASSIGNED named objects are likely recently launched satellites that are being tracked but not necessarily identified.

Loading next visibility...
Identifier
69589
Orbit
LEO
Country
Unknown
Related business
Manufacturer
AST & Science
Mission
Spacecraft
Bus & Motor
BB BLOCK-2, EP
Mass
5,850 kg wet, 5,830 kg dry
Launch date (UTC)
Unknown
Launch vehicle
Unknown
Launch site
Unknown
Object type
Unknown
Shape & HBR
Unknown
Radar Cross Section
RCS unknown

Expand to show TLE details & history
Last TLE update: 22 hours ago

TLE from 22 hours ago
0 TBA - TO BE ASSIGNED
1 69589U 26139A   26168.86759766  .00000613  00000-0  51823-4 0  9998
2 69589  52.9984 259.4733 0003688 322.0387  38.0343 15.12492987    97
Epoch: 2026-06-17T20:49Z
TLE epoch observation values (Epoch: 2026-06-17T20:49:20.437Z)
Latitude
-0.00008°
Longitude
41.01897°
Altitude
527.47 km
Speed
7.602 km/s
True Right ascension
17h 17m 53s
True Declination
0° 00' 00"
Sunlit
Object was in full shadow at epoch
Visualization orbit readout
Latitude
Unknown
Longitude
Unknown
Altitude
Unknown
Speed
Unknown
Apparent Right ascension
Unknown
Apparent Declination
Unknown
Sunlit
N/A
Visualization observer readout
Local Sidereal Time
05:21:57
Azimuth
Unknown
Elevation
Unknown
Doppler factor
Unknown
Orbital elements
Apogee altitude
531.428 km
Perigee altitude
526.333 km
Semi-major axis
6,907.018 km
Eccentricity
0.00037
Inclination
52.9984°
RAAN
259.4733°
Arg. of periapsis
322.0387°
True anomaly
38.06035°
Mean anomaly
38.0343°
Eccentric anomaly
38.04732°
Mean motion
3.78101 °/min
Orbital period
95.21 mins
BSTAR
0.000051823
Loading maneuver chart data...
Computing Atmospheric mass density...
Loading historical data...
Loading historical data...
Loading historical data...
Loading historical data...
Loading historical data...
Loading historical data...
Loading historical data...
Other satellites on launch

Documentation

Showing up to 5 results
|